COSMOS 2219

Last updated on Wed Sep 17 2025 00:02:15 GMT+0000 (Coordinated Universal Time)

1 22219U 92076A 25259.57328094 -.00000030 00000+0 89316-5 0 9996 2 22219 71.0636 22.0388 0015709 107.6978 252.5861 14.14049312693763
UTC large
Height (km)
Speed (km/s)
/
Latitude / Longitude
Inclination (degrees)
Orbital Period (minutes)
Azimuth
Elevation
Range (km)
Doppler Factor

Next 0 passes for location: London (51.5072 / 0.1276)

Sorry there are no passes over London.